When you browse on this site, cookies collect data to enhance your experience and personalize the content and advertising you see.
Visit our Privacy Policy to learn more. By continuing to use the site, you agree to this use of cookies and data.
  • în România
  • Lista ţărilor
  • Pe 7 zile
  • Temperatura apei
  • Hartă satelitară
  • Meteo pe hartă
  • Widget-uri
  • user-avatar
    Intrare

    Meteo pe oră la Satu Mare

    Astăzi, 18 Ianuarie, Vineri

    Timp Temperatura Precipitaţii Vânt Presiune Umiditate
    00:00 +1°C° 0.1 mm 3 m/s 748 mmHg 94%
    01:00 0°C° 0.1 mm 4 m/s 747 mmHg 93%
    02:00 0°C° 0 mm 4 m/s 747 mmHg 95%
    03:00 0°C° 0.1 mm 4 m/s 747 mmHg 95%
    04:00 0°C° 0.1 mm 4 m/s 747 mmHg 95%
    05:00 0°C° 0.1 mm 4 m/s 746 mmHg 95%
    06:00 0°C° 0.1 mm 4 m/s 746 mmHg 95%
    07:00 0°C° 0.1 mm 4 m/s 746 mmHg 95%
    08:00 0°C° 0 mm 5 m/s 746 mmHg 95%
    09:00 0°C° 0.3 mm 4 m/s 747 mmHg 96%
    10:00 0°C° 0.3 mm 4 m/s 747 mmHg 97%
    11:00 0°C° 0.3 mm 4 m/s 747 mmHg 98%
    12:00 +1°C° 0.4 mm 3 m/s 747 mmHg 98%
    13:00 +1°C° 0.4 mm 3 m/s 748 mmHg 98%
    14:00 +1°C° 0.4 mm 3 m/s 748 mmHg 98%
    15:00 +1°C° 0.3 mm 3 m/s 748 mmHg 98%
    16:00 +2°C° 0.3 mm 2 m/s 748 mmHg 97%
    17:00 +1°C° 0.3 mm 2 m/s 749 mmHg 97%
    18:00 0°C° 0.3 mm 3 m/s 749 mmHg 95%
    19:00 0°C° 0.3 mm 3 m/s 750 mmHg 92%
    20:00 -1°C° 0.3 mm 4 m/s 751 mmHg 90%
    21:00 0°C° 0 mm 3 m/s 751 mmHg 88%
    22:00 -1°C° 0 mm 3 m/s 752 mmHg 86%
    23:00 -1°C° 0 mm 3 m/s 753 mmHg 85%

    Mâine, 19 Ianuarie, Sâmbătă

    Timp Temperatura Precipitaţii Vânt Presiune Umiditate
    00:00 -2°C° 0 mm 3 m/s 753 mmHg 86%
    01:00 -3°C° 0 mm 2 m/s 754 mmHg 88%
    02:00 -4°C° 0 mm 2 m/s 754 mmHg 89%
    03:00 -4°C° 0 mm 2 m/s 754 mmHg 89%
    04:00 -2°C° 0 mm 1 m/s 755 mmHg 89%
    05:00 -3°C° 0 mm 1 m/s 755 mmHg 89%
    06:00 -3°C° 0 mm 1 m/s 755 mmHg 88%
    07:00 -3°C° 0 mm 1 m/s 755 mmHg 88%
    08:00 -4°C° 0 mm 0 m/s 756 mmHg 87%
    09:00 -3°C° 0 mm 1 m/s 756 mmHg 85%
    10:00 -2°C° 0 mm 1 m/s 756 mmHg 84%
    11:00 -1°C° 0 mm 1 m/s 756 mmHg 82%
    12:00 -1°C° 0 mm 1 m/s 756 mmHg 81%
    13:00 0°C° 0 mm 1 m/s 755 mmHg 81%
    14:00 +1°C° 0 mm 1 m/s 755 mmHg 80%
    15:00 0°C° 0 mm 1 m/s 755 mmHg 82%
    16:00 -1°C° 0 mm 1 m/s 755 mmHg 84%
    17:00 -1°C° 0 mm 1 m/s 754 mmHg 86%
    18:00 -2°C° 0 mm 1 m/s 754 mmHg 86%
    19:00 -4°C° 0 mm 2 m/s 754 mmHg 85%
    20:00 -4°C° 0 mm 2 m/s 755 mmHg 85%
    21:00 -4°C° 0 mm 2 m/s 754 mmHg 84%
    22:00 -4°C° 0 mm 2 m/s 754 mmHg 84%
    23:00 -4°C° 0 mm 2 m/s 754 mmHg 83%

    Poimâine, 20 Ianuarie, Duminică

    Timp Temperatura Precipitaţii Vânt Presiune Umiditate
    00:00 -3°C° 0 mm 2 m/s 754 mmHg 83%
    01:00 -3°C° 0 mm 2 m/s 753 mmHg 83%
    02:00 -3°C° 0 mm 2 m/s 753 mmHg 82%
    03:00 -3°C° 0.1 mm 2 m/s 753 mmHg 84%
    04:00 -3°C° 0.1 mm 2 m/s 752 mmHg 85%
    05:00 -2°C° 0.1 mm 2 m/s 752 mmHg 87%
    06:00 -2°C° 0.1 mm 2 m/s 751 mmHg 87%
    07:00 -2°C° 0.1 mm 2 m/s 751 mmHg 88%
    08:00 -2°C° 0.1 mm 2 m/s 751 mmHg 89%
    09:00 -2°C° 0.1 mm 2 m/s 751 mmHg 89%
    10:00 -1°C° 0.1 mm 2 m/s 751 mmHg 90%
    11:00 -1°C° 0.1 mm 2 m/s 750 mmHg 91%
    12:00 +1°C° 0.6 mm 2 m/s 750 mmHg 93%
    13:00 +2°C° 0.6 mm 1 m/s 750 mmHg 94%
    14:00 +2°C° 0.6 mm 1 m/s 749 mmHg 96%
    15:00 +2°C° 0.6 mm 1 m/s 749 mmHg 96%
    16:00 +2°C° 0.6 mm 1 m/s 749 mmHg 96%
    17:00 +1°C° 0.6 mm 1 m/s 749 mmHg 95%
    18:00 +1°C° 0.4 mm 1 m/s 750 mmHg 96%
    19:00 +1°C° 0.4 mm 1 m/s 750 mmHg 96%
    20:00 +1°C° 0.4 mm 1 m/s 750 mmHg 96%
    21:00 +1°C° 0.2 mm 1 m/s 750 mmHg 97%
    22:00 +1°C° 0.2 mm 1 m/s 751 mmHg 97%
    23:00 +1°C° 0.2 mm 1 m/s 751 mmHg 97%

    21 Ianuarie, Luni

    Timp Temperatura Precipitaţii Vânt Presiune Umiditate
    00:00 -2°C° 0.1 mm 2 m/s 751 mmHg 97%
    01:00 -2°C° 0.1 mm 2 m/s 752 mmHg 97%
    02:00 -3°C° 0.1 mm 2 m/s 752 mmHg 96%
    03:00 -3°C° 0.1 mm 2 m/s 752 mmHg 96%
    04:00 -3°C° 0.1 mm 2 m/s 752 mmHg 95%
    05:00 -4°C° 0.1 mm 2 m/s 753 mmHg 95%
    06:00 -4°C° 0 mm 2 m/s 753 mmHg 95%
    07:00 -4°C° 0 mm 2 m/s 754 mmHg 94%
    08:00 -3°C° 0 mm 1 m/s 754 mmHg 94%
    09:00 -2°C° 0 mm 1 m/s 754 mmHg 93%
    10:00 -2°C° 0 mm 1 m/s 755 mmHg 92%
    11:00 -1°C° 0 mm 1 m/s 755 mmHg 90%
    12:00 -1°C° 0 mm 1 m/s 755 mmHg 90%
    13:00 -1°C° 0 mm 1 m/s 755 mmHg 89%
    14:00 0°C° 0 mm 1 m/s 755 mmHg 88%
    15:00 -1°C° 0 mm 1 m/s 755 mmHg 89%
    16:00 -1°C° 0 mm 1 m/s 756 mmHg 91%
    17:00 -3°C° 0 mm 0 m/s 756 mmHg 92%
    18:00 -3°C° 0 mm 0 m/s 756 mmHg 92%
    19:00 -3°C° 0 mm 0 m/s 756 mmHg 92%
    20:00 -4°C° 0 mm 0 m/s 757 mmHg 92%
    21:00 -4°C° 0 mm 0 m/s 757 mmHg 92%
    22:00 -4°C° 0 mm 0 m/s 757 mmHg 92%
    23:00 -4°C° 0 mm 0 m/s 757 mmHg 92%

    22 Ianuarie, Marţi

    Timp Temperatura Precipitaţii Vânt Presiune Umiditate
    00:00 -3°C° 0 mm 0 m/s 757 mmHg 92%
    01:00 -3°C° 0 mm 0 m/s 757 mmHg 92%
    02:00 -2°C° 0 mm 1 m/s 757 mmHg 92%
    03:00 -2°C° 0 mm 1 m/s 756 mmHg 92%
    04:00 -2°C° 0 mm 1 m/s 756 mmHg 92%
    05:00 -2°C° 0 mm 1 m/s 756 mmHg 92%
    06:00 -3°C° 0 mm 1 m/s 756 mmHg 92%
    07:00 -3°C° 0 mm 1 m/s 755 mmHg 92%
    08:00 -3°C° 0 mm 1 m/s 755 mmHg 92%
    09:00 -2°C° 0 mm 1 m/s 755 mmHg 91%
    10:00 -2°C° 0 mm 1 m/s 754 mmHg 90%
    11:00 -1°C° 0 mm 1 m/s 754 mmHg 90%
    12:00 0°C° 0 mm 1 m/s 753 mmHg 89%
    13:00 0°C° 0 mm 1 m/s 753 mmHg 88%
    14:00 +1°C° 0 mm 1 m/s 752 mmHg 87%
    15:00 -2°C° 0 mm 2 m/s 751 mmHg 88%
    16:00 -3°C° 0 mm 2 m/s 751 mmHg 89%
    17:00 -4°C° 0 mm 2 m/s 750 mmHg 90%
    18:00 -4°C° 0 mm 2 m/s 750 mmHg 90%
    19:00 -5°C° 0 mm 2 m/s 749 mmHg 90%
    20:00 -6°C° 0 mm 3 m/s 749 mmHg 89%
    21:00 -6°C° 0 mm 3 m/s 748 mmHg 88%
    22:00 -6°C° 0 mm 3 m/s 747 mmHg 87%
    23:00 -6°C° 0 mm 3 m/s 747 mmHg 86%

    23 Ianuarie, Miercuri

    Timp Temperatura Precipitaţii Vânt Presiune Umiditate
    00:00 -6°C° 0 mm 3 m/s 746 mmHg 84%
    01:00 -6°C° 0 mm 3 m/s 745 mmHg 82%
    02:00 -6°C° 0 mm 3 m/s 744 mmHg 81%
    03:00 -7°C° 0 mm 4 m/s 743 mmHg 80%
    04:00 -5°C° 0 mm 4 m/s 743 mmHg 79%
    05:00 -4°C° 0 mm 4 m/s 742 mmHg 78%
    06:00 -4°C° 0 mm 4 m/s 741 mmHg 80%
    07:00 -4°C° 0 mm 4 m/s 740 mmHg 81%
    08:00 -3°C° 0 mm 4 m/s 740 mmHg 82%
    09:00 -3°C° 0.1 mm 4 m/s 739 mmHg 84%
    10:00 -2°C° 0.1 mm 4 m/s 739 mmHg 85%
    11:00 -1°C° 0.1 mm 4 m/s 738 mmHg 87%
    12:00 -1°C° 0.2 mm 4 m/s 737 mmHg 90%
    13:00 0°C° 0.2 mm 4 m/s 736 mmHg 92%
    14:00 0°C° 0.2 mm 4 m/s 736 mmHg 95%
    15:00 0°C° 0.1 mm 4 m/s 735 mmHg 93%
    16:00 0°C° 0.1 mm 4 m/s 734 mmHg 91%
    17:00 0°C° 0.1 mm 4 m/s 734 mmHg 89%
    18:00 +1°C° 0 mm 4 m/s 734 mmHg 88%
    19:00 +1°C° 0 mm 5 m/s 733 mmHg 86%
    20:00 +1°C° 0 mm 5 m/s 733 mmHg 84%
    21:00 +1°C° 0.1 mm 5 m/s 733 mmHg 85%
    22:00 +1°C° 0.1 mm 5 m/s 733 mmHg 85%
    23:00 +1°C° 0.1 mm 5 m/s 733 mmHg 86%
    Arată mai mult